www.pogodaiklimat.ru

Погода и климат >> Архив погоды >> Таиланд >> Пхетчабун


ПОГОДА в Пхетчабуне

  • Прогноз погоды в Пхетчабуне
  • Монитор погоды в Пхетчабуне

АРХИВ ПОГОДЫ в Пхетчабуне

Время (UTC), дата Ветер
(напр.,м/с)
 
Видим.   Явления Облачность Т
(С)
Тd
(С)
f
(%)
Тe
(С)
Тes
(С)
Комфортность P
(гПа)
Po
(гПа)
Тmin
(С)
Tmax
(С)
R
(мм)
R24
(мм)
S
(см)
15 14.08 штиль 0 10 км 10/3 600 м
[Sc Ac trans Cs]
+25.8 +24.9 95 +37 +37 очень
душно
1007.0 993.8
18 14.08 Ю 3 10 км 10/3 600 м
[Cu Sc Ac trans Cs]
+25.4 +24.5 95 +36 +36 очень
душно
1007.2 993.9
21 14.08 штиль 0 10 км 10/3 600 м
[Cu Sc Ac trans Cs]
+25.4 +24.5 95 +36 +36 очень
душно
1005.9 992.6
00 15.08 штиль 0 10 км 10/4 600 м
[Cu Sc Ac trans Cs]
+25.2 +24.3 95 +35 +36 очень
душно
1006.1 992.8 +24.7
03 15.08 штиль 0 12 км 9/3 600 м
[Cu Sc Ac trans Cs]
+27.4 +24.8 86 +39 +48 очень
душно
1006.8 993.6
06 15.08 штиль 0 12 км 8/3 600 м
[Cu Sc Ac trans Cs]
+32.3 +25.7 68 +47 +60 опасность
перегрева
1005.1 992.2
09 15.08 штиль 0 12 км 5/3 600 м
[Cb calv Ac trans]
+33.8 +25.7 63 +49 +55 опасность
перегрева
1001.3 988.5
12 15.08 штиль 0 12 км 5/3 600 м
[Cb calv Ac trans]
+30.5 +25.0 73 +44 +44 опасность
перегрева
1002.1 989.1 +34.1
15 15.08 штиль 0 10 км 8/3 600 м
[Cu Sc Ac trans Cs]
+29.0 +25.2 80 +42 +42 опасность
перегрева
1004.1 991.1
18 15.08 штиль 0 10 км 6/3 600 м
[Cu Sc Ac trans Cs]
+27.5 +24.6 84 +39 +39 очень
душно
1003.7 990.6
21 15.08 штиль 0 10 км 6/1 600 м
[Sc Ac trans Cs]
+26.5 +24.9 91 +38 +38 очень
душно
1003.2 990.1
00 16.08 штиль 0 10 км 9/3 600 м
[Sc Ac trans Cs]
+26.2 +24.9 93 +37 +38 очень
душно
1003.4 990.2 +25.5
03 16.08 штиль 0 12 км 9/3 600 м
[Sc Ac trans Cs]
+29.0 +25.3 80 +42 +51 опасность
перегрева
1004.8 991.7
06 16.08 штиль 0 12 км 8/3 600 м
[Cb cap Ac trans Cs]
+33.2 +24.9 62 +47 +60 опасность
перегрева
1002.8 989.9
09 16.08 штиль 0 12 км 10/4 600 м
[Cb cap Ac trans Cs]
+32.3 +24.8 65 +46 +49 опасность
перегрева
1000.7 987.8
12 16.08 штиль 0 10 км {гроза} 10/5 600 м
[Cb cap Ac lent Cs]
+29.3 +25.0 78 +42 +42 опасность
перегрева
1001.9 988.8 +35.0
15 16.08 штиль 0 10 км 8/4 600 м
[Cu Sc Ac lent Cs]
+27.8 +25.2 86 +40 +40 очень
душно
1004.6 991.5
18 16.08 штиль 0 10 км 6/3 600 м
[Sc Ac trans Cs]
+26.3 +24.0 87 +36 +36 очень
душно
1002.9 989.7
21 16.08 штиль 0 10 км 10/4 600 м
[Sc Ac lent Cs]
+26.0 +24.0 89 +36 +36 очень
душно
1002.8 989.6
00 17.08 штиль 0 12 км 8/1 600 м
[Sc Ac lent Cs]
+26.2 +24.5 90 +37 +38 очень
душно
1004.2 991.1 +25.3
03 17.08 штиль 0 12 км 6/3 1000 м
[Sc Ac lent Cs]
+30.3 +24.1 69 +42 +53 опасность
перегрева
1006.0 993.0
06 17.08 штиль 0 12 км 6/3 600 м
[Cu med, cong Ac trans Cs]
+34.3 +24.7 57 +47 +63 опасность
перегрева
1003.7 990.8
09 17.08 штиль 0 12 км 8/3 600 м
[Cb cap Ac trans Cs]
+34.0 +25.6 62 +49 +54 опасность
перегрева
1002.6 989.8
12 17.08 штиль 0 10 км 10/4 600 м
[Sc Ac lent Cs]
+27.8 +24.3 81 +39 +39 очень
душно
1005.0 991.8 +35.3
15 17.08 штиль 0 10 км 10/4 600 м
[Sc Ac lent Cs]
+27.0 +24.1 84 +37 +37 очень
душно
1007.6 994.4
18 17.08 штиль 0 10 км 10/4 600 м
[Sc Ac lent Cs]
+26.0 +24.3 90 +36 +36 очень
душно
1006.8 993.6
21 17.08 штиль 0 10 км 10/3 600 м
[Sc Ac lent Cs]
+25.0 +24.0 94 +34 +34 очень
душно
1006.3 993.0
00 18.08 штиль 0 10 км 10/5 600 м
[Sc Ac lent Cs]
+25.5 +24.3 93 +35 +36 очень
душно
1007.8 994.5 +24.5
03 18.08 Ю 2 12 км 10/4 600 м
[Sc Ac lent Cs]
+29.2 +24.6 76 +41 +46 опасность
перегрева
1009.2 996.1
06 18.08 Ю 2 12 км 9/4 600 м
[Cu Sc Ac lent Cs]
+33.5 +24.7 60 +47 +54 опасность
перегрева
1006.9 994.0
09 18.08 штиль 0 12 км 10/5 600 м
[Cu Sc Ac lent Cs]
+31.9 +24.2 64 +44 +47 опасность
перегрева
1005.2 992.2
12 18.08 штиль 0 10 км в посл. час дождь 10/5 600 м
[Cu Sc Ac lent Cs]
+28.5 +25.2 82 +41 +41 опасность
перегрева
1005.8 992.7 +33.8 0.2
15 18.08 штиль 0 10 км 10/5 600 м
[Cu Sc Ac lent Cs]
+27.7 +24.7 84 +39 +39 очень
душно
1008.5 995.3
18 18.08 штиль 0 10 км 10/4 600 м
[Sc Ac lent Cs]
+26.5 +24.3 88 +37 +37 очень
душно
1007.8 994.6
21 18.08 штиль 0 10 км 10/4 600 м
[Sc Ac lent Cs]
+25.7 +23.9 90 +35 +35 очень
душно
1006.2 992.9
00 19.08 штиль 0 10 км 10/5 600 м
[Sc Ac lent Cs]
+25.5 +24.2 93 +35 +36 очень
душно
1007.0 993.8 +24.5
03 19.08 штиль 0 12 км 9/4 600 м
[Sc Ac lent Cs]
+30.0 +25.0 75 +43 +51 опасность
перегрева
1007.9 994.8
06 19.08 штиль 0 12 км {дождь} 9/4 600 м
[Cu Sc Ac lent Cs]
+30.5 +26.2 78 +46 +56 опасность
перегрева
1006.3 993.2 2
09 19.08 СВ 2 12 км 10/5 600 м
[Cu Sc Ac lent Cs]
+31.2 +25.3 71 +45 +47 опасность
перегрева
1004.1 991.1
12 19.08 штиль 0 10 км 9/4 600 м
[Cu Sc Ac lent Cs]
+28.4 +25.3 83 +41 +41 опасность
перегрева
1004.2 991.1 +33.1
15 19.08 штиль 0 10 км 9/4 600 м
[Sc Ac lent Cs]
+27.0 +23.6 82 +37 +37 очень
душно
1006.4 993.2
18 19.08 штиль 0 10 км 9/4 600 м
[Sc Ac lent Cs]
+24.8 +23.0 90 +33 +33 очень
душно
1005.8 992.5
21 19.08 штиль 0 10 км 9/4 600 м
[Sc Ac lent Cs]
+24.7 +23.1 91 +33 +33 очень
душно
1004.6 991.3
00 20.08 штиль 0 10 км 9/3 600 м
[Cu Sc Ac trans Cs]
+24.3 +23.3 94 +33 +33 очень
душно
1004.9 991.6 +23.6
03 20.08 штиль 0 12 км 9/3 600 м
[Cu Sc Ac trans Cs]
+29.8 +24.8 75 +43 +51 опасность
перегрева
1005.5 992.4
06 20.08 Ю 3 12 км 8/3 600 м
[Cu Sc Ac trans Cs]
+33.4 +25.4 63 +48 +56 опасность
перегрева
1003.6 990.7
09 20.08 штиль 0 12 км 9/3 600 м
[Cb calv Ac trans Cs]
+32.9 +25.1 64 +47 +51 опасность
перегрева
1000.8 987.9
12 20.08 штиль 0 8000 м гроза, ливневой дождь 10/5 600 м
[Cb cap Ac As Cs]
+28.4 +25.0 82 +41 +41 опасность
перегрева
1002.7 989.6 +34.6 0.8
15 20.08 штиль 0 10 км в посл. час дождь 8/4 600 м
[Cu Sc Ac trans Cs]
+25.2 +24.3 95 +35 +35 очень
душно
1004.1 990.9 4
18 20.08 штиль 0 10 км {дождь} 8/3 600 м
[Sc Ac trans Cs]
+24.7 +23.7 94 +34 +34 очень
душно
1003.7 990.5 5
21 20.08 штиль 0 10 км 10/4 600 м
[Sc Ac trans Cs]
+24.5 +23.8 96 +33 +33 очень
душно
1003.2 990.0
00 21.08 штиль 0 10 км 8/1 600 м
[Cu Sc Ac trans Cs]
+24.7 +24.0 96 +34 +35 очень
душно
1004.5 991.2 +24.1
03 21.08 Ю 2 12 км 9/4 600 м
[Cu Sc Ac trans Cs]
+27.7 +24.8 84 +39 +45 очень
душно
1005.2 992.1
06 21.08 штиль 0 12 км 8/3 600 м
[Cb cap Ac trans Cs]
+30.7 +25.3 73 +45 +58 опасность
перегрева
1004.0 991.0
09 21.08 штиль 0 12 км 9/3 600 м
[Cb calv Ac trans Cs]
+30.7 +24.6 70 +43 +47 опасность
перегрева
1002.3 989.3
12 21.08 штиль 0 12 км 10/3 600 м
[Cu Sc Ac trans Cs]
+28.6 +24.6 79 +41 +41 опасность
перегрева
1003.5 990.4 +31.9

 

Местоположение метеостанции Пхетчабун (Таиланд): широта 16.43 долгота 101.15 высота над уровнем моря 116 м.

В архиве по умолчанию представлена погода в Пхетчабуне за последнюю неделю. Архивные данные за месяц целиком и за предыдущие месяцы, начиная с января 2011 года, Вы можете получить, выбрав интересующий диапазон дат из раскрывающегося списка и нажав кнопку "Ввод!".


*Определитесь, кто Вы:
робот инопланетянин человек

Внимание! Время в таблицах - всемирное. Для получения местного времени необходимо прибавить поправку, которая равна 7 ч.

Смотрите также архив погоды в соседних городах и на ближайших метеорологических станциях:

Погода в Ломсаке (Таиланд) (39 км)
Погода в Вичан Бури (Таиланд) (89 км)
Погода в Пичит Агромете (Таиланд) (93 км)
Погода в Пхитсанулоке (Таиланд) (103 км)
Погода в Чайяпхуме (Таиланд) (117 км)
Погода в Лоей Агромете (Таиланд) (124 км)
Погода в Накхон Саван (Таиланд) (127 км)
Погода в Буа Чум (Таиланд) (129 км)
Погода в Лоэй (Таиланд) (129 км)
Погода в Такфа Агромете (Таиланд) (139 км)

Пояснения к столбцам:

Ветер - указаны скорость ветра в м/с - средняя за 10 мин, порывы в срок и между сроками (в фигурных скобках) и направление, откуда дует ветер: С - северный, СВ - северо-восточный, В - восточный, ЮВ - юго-восточный, Ю - южный, ЮЗ - юго-западный, З - западный, СЗ - северо-западный.
Видимость - горизонтальная дальность видимости в метрах или километрах. При видимости от 1 до 10 км при отсутствии осадков обычно наблюдается дымка, при ухудшении видимости до 1 км и менее - туман. В сухую погоду видимость может ухудшаться дымом, пылью или мглою.
Явления - указаны атмосферные явления, наблюдавшиеся в срок или в последний час перед сроком; фигурными скобками обозначены явления, наблюдавшиеся между сроками (за 1-3 часа до срока); квадратными скобками обозначены град или гололедные отложения с указанием их диаметра в мм.
Облачность - указаны через наклонную черту общая и нижняя облачность в баллах и высота нижней границы облаков в метрах; квадратными скобками обозначены формы облаков: Ci - перистые, Cs - перисто-слоистые, Cc - перисто-кучевые, Ac - высококучевые, As - высокослоистые, Sc - слоисто-кучевые, Ns - слоисто-дождевые, Cu - кучевые, Cb - кучево-дождевые. Подробнее классификацию облаков см. в Атласе облаков (PDF).
T - Температура воздуха - температура, измеренная на высоте 2 м над землей.
Td - Температура точки росы - температура, при понижении до которой содержащийся в воздухе водяной пар достигнет насыщения.
f - Относительная влажность воздуха - влажноcть воздуха, измеренная на высоте 2 м над землей.
Te - Эффективная температура - температура, которую ощущает одетый по сезону человек в тени. Характеристика душности погоды. При расчете учитывается влияние влажности воздуха и скорости ветра на теплоощущения человека.
Tes - Эффективная температура на солнце - температура, которую ощущает человек, с поправкой на солнечный нагрев. Характеристика знойности погоды. Зависит от высоты солнца над горизонтом, облачности и скорости ветра. Ночью, в пасмурную погоду, а также при ветре 12 м/с и более поправка равна нулю.
P - Атмосферное давление - приведенное к уровню моря атмосферное давление.
Po - Атмосферное давление - измеренное на уровне метеостанции атмосферное давление.
Tmin - Минимальная температура - минимум температуры воздуха на высоте 2 м над землей.
Tmax - Максимальная температура - максимум температуры воздуха на высоте 2 м над землей.
R - Количество осадков - Количество выпавших осадков за период времени, мм. При наведении курсора мыши на число - период времени, за который выпало указанное количество осадков.
R24 - Количество осадков - Количество выпавших осадков за 24 часа, мм.
S - Снежный покров - Высота снежного покрова, см. При наведении курсора мыши на число - состояние снежного покрова и степень покрытия местности в баллах.